Time,TemperatureF,DewpointF,PressureIn,WindDirection,WindDirectionDegrees,WindSpeedMPH,WindSpeedGustMPH,Humidity,HourlyPrecipIn,Conditions,Clouds,dailyrainin,SoftwareType,DateUTC
2013-04-12 00:04:00,75.9,69.3,29.85,North,-999,-999.0,-999.0,80,0.00,,,0.00,WSDL version 420,2013-04-12 04:04:00,
2013-04-12 00:09:00,75.9,69.3,29.85,North,-999,-999.0,-999.0,80,0.00,,,0.00,WSDL version 420,2013-04-12 04:09:00,
2013-04-12 00:14:00,75.9,69.5,29.85,North,-999,-999.0,-999.0,81,0.00,,,0.00,WSDL version 420,2013-04-12 04:14:00,
2013-04-12 00:19:00,75.9,69.7,29.85,North,-999,-999.0,-999.0,81,0.00,,,0.00,WSDL version 420,2013-04-12 04:19:00,
2013-04-12 00:24:00,75.9,69.7,29.85,North,-999,-999.0,-999.0,81,0.00,,,0.00,WSDL version 420,2013-04-12 04:24:00,
2013-04-12 00:29:00,75.8,69.6,29.85,North,-999,-999.0,-999.0,81,0.00,,,0.00,WSDL version 420,2013-04-12 04:29:00,
2013-04-12 00:34:00,75.9,69.7,29.85,North,-999,-999.0,-999.0,81,0.00,,,0.00,WSDL version 420,2013-04-12 04:34:00,
2013-04-12 00:44:00,75.9,69.7,29.85,North,-999,-999.0,-999.0,81,0.00,,,0.00,WSDL version 420,2013-04-12 04:44:00,
2013-04-12 00:49:00,76.0,69.9,29.85,North,-999,-999.0,-999.0,82,0.00,,,0.00,WSDL version 420,2013-04-12 04:49:00,
2013-04-12 00:54:00,76.1,70.3,29.85,North,-999,-999.0,-999.0,82,0.00,,,0.00,WSDL version 420,2013-04-12 04:54:00,
2013-04-12 00:59:00,76.1,70.3,29.85,North,-999,-999.0,-999.0,82,0.00,,,0.00,WSDL version 420,2013-04-12 04:59:00,
2013-04-12 01:04:00,76.2,70.4,29.85,North,-999,-999.0,-999.0,82,0.00,,,0.00,WSDL version 420,2013-04-12 05:04:00,
2013-04-12 01:09:00,76.3,70.5,29.85,North,-999,-999.0,-999.0,82,0.00,,,0.00,WSDL version 420,2013-04-12 05:09:00,
2013-04-12 01:14:00,76.3,70.5,29.85,North,-999,-999.0,-999.0,82,0.00,,,0.00,WSDL version 420,2013-04-12 05:14:00,
2013-04-12 01:19:00,76.5,70.5,29.85,North,-999,-999.0,-999.0,81,0.00,,,0.00,WSDL version 420,2013-04-12 05:19:00,
2013-04-12 01:24:00,76.5,70.2,29.88,North,-999,-999.0,-999.0,81,0.00,,,0.00,WSDL version 420,2013-04-12 05:24:00,
2013-04-12 01:29:00,76.5,70.2,29.88,North,-999,-999.0,-999.0,81,0.00,,,0.00,WSDL version 420,2013-04-12 05:29:00,
2013-04-12 01:34:00,76.5,70.2,29.88,North,-999,-999.0,-999.0,81,0.00,,,0.00,WSDL version 420,2013-04-12 05:34:00,
2013-04-12 01:39:00,76.6,70.4,29.88,North,-999,-999.0,-999.0,81,0.00,,,0.00,WSDL version 420,2013-04-12 05:39:00,
2013-04-12 01:44:00,76.6,70.4,29.88,North,-999,-999.0,-999.0,81,0.00,,,0.00,WSDL version 420,2013-04-12 05:44:00,
2013-04-12 01:49:00,76.5,70.0,29.88,North,-999,-999.0,-999.0,80,0.00,,,0.00,WSDL version 420,2013-04-12 05:49:00,
2013-04-12 01:54:00,76.4,69.8,29.88,North,-999,-999.0,-999.0,80,0.00,,,0.00,WSDL version 420,2013-04-12 05:54:00,
2013-04-12 01:59:00,76.3,69.7,29.88,North,-999,-999.0,-999.0,80,0.00,,,0.00,WSDL version 420,2013-04-12 05:59:00,
2013-04-12 02:04:00,76.3,69.7,29.88,North,-999,-999.0,-999.0,80,0.00,,,0.00,WSDL version 420,2013-04-12 06:04:00,
2013-04-12 02:09:00,76.3,69.7,29.88,North,-999,-999.0,-999.0,80,0.00,,,0.00,WSDL version 420,2013-04-12 06:09:00,
2013-04-12 02:14:00,76.2,69.6,29.88,North,-999,-999.0,-999.0,80,0.00,,,0.00,WSDL version 420,2013-04-12 06:14:00,
2013-04-12 02:19:00,76.1,69.6,29.88,North,-999,-999.0,-999.0,80,0.00,,,0.00,WSDL version 420,2013-04-12 06:19:00,
2013-04-12 02:24:00,76.0,69.4,29.88,North,-999,-999.0,-999.0,80,0.00,,,0.00,WSDL version 420,2013-04-12 06:24:00,
2013-04-12 02:29:00,75.9,69.6,29.88,North,-999,-999.0,-999.0,81,0.00,,,0.00,WSDL version 420,2013-04-12 06:29:00,
2013-04-12 02:34:00,75.9,69.7,29.88,North,-999,-999.0,-999.0,81,0.00,,,0.00,WSDL version 420,2013-04-12 06:34:00,
2013-04-12 02:39:00,75.9,69.7,29.88,North,-999,-999.0,-999.0,81,0.00,,,0.00,WSDL version 420,2013-04-12 06:39:00,
2013-04-12 02:44:00,75.9,69.7,29.88,North,-999,-999.0,-999.0,81,0.00,,,0.00,WSDL version 420,2013-04-12 06:44:00,
2013-04-12 02:49:00,75.9,69.8,29.88,North,-999,-999.0,-999.0,81,0.00,,,0.00,WSDL version 420,2013-04-12 06:49:00,
2013-04-12 02:54:00,75.9,70.1,29.88,North,-999,-999.0,-999.0,82,0.00,,,0.00,WSDL version 420,2013-04-12 06:54:00,
2013-04-12 02:59:00,75.9,70.1,29.88,North,-999,-999.0,-999.0,82,0.00,,,0.00,WSDL version 420,2013-04-12 06:59:00,
2013-04-12 03:04:00,75.9,70.1,29.88,North,-999,-999.0,-999.0,82,0.00,,,0.00,WSDL version 420,2013-04-12 07:04:00,
2013-04-12 03:09:00,75.9,70.1,29.88,North,-999,-999.0,-999.0,82,0.00,,,0.00,WSDL version 420,2013-04-12 07:09:00,
2013-04-12 03:14:00,76.0,70.2,29.88,North,-999,-999.0,-999.0,82,0.00,,,0.00,WSDL version 420,2013-04-12 07:14:00,
2013-04-12 03:19:00,76.1,70.3,29.88,North,-999,-999.0,-999.0,82,0.00,,,0.00,WSDL version 420,2013-04-12 07:19:00,
2013-04-12 03:24:00,76.1,70.3,29.85,North,-999,-999.0,-999.0,82,0.00,,,0.00,WSDL version 420,2013-04-12 07:24:00,
2013-04-12 03:29:00,76.3,70.5,29.85,North,-999,-999.0,-999.0,82,0.00,,,0.00,WSDL version 420,2013-04-12 07:29:00,
2013-04-12 03:34:00,76.3,70.5,29.85,North,-999,-999.0,-999.0,82,0.00,,,0.00,WSDL version 420,2013-04-12 07:34:00,
2013-04-12 03:39:00,76.3,70.5,29.88,North,-999,-999.0,-999.0,82,0.00,,,0.00,WSDL version 420,2013-04-12 07:39:00,
2013-04-12 03:44:00,76.3,70.5,29.88,North,-999,-999.0,-999.0,82,0.00,,,0.00,WSDL version 420,2013-04-12 07:44:00,
2013-04-12 03:49:00,76.3,70.5,29.88,North,-999,-999.0,-999.0,82,0.00,,,0.00,WSDL version 420,2013-04-12 07:49:00,
2013-04-12 03:54:00,76.3,70.5,29.85,North,-999,-999.0,-999.0,82,0.00,,,0.00,WSDL version 420,2013-04-12 07:54:00,
2013-04-12 03:59:00,76.3,70.5,29.85,North,-999,-999.0,-999.0,82,0.00,,,0.00,WSDL version 420,2013-04-12 07:59:00,
2013-04-12 04:04:00,76.3,70.5,29.85,North,-999,-999.0,-999.0,82,0.00,,,0.00,WSDL version 420,2013-04-12 08:04:00,
2013-04-12 04:09:00,76.3,70.5,29.85,North,-999,-999.0,-999.0,82,0.00,,,0.00,WSDL version 420,2013-04-12 08:09:00,
2013-04-12 04:14:00,76.3,70.6,29.85,North,-999,-999.0,-999.0,82,0.00,,,0.00,WSDL version 420,2013-04-12 08:14:00,
2013-04-12 04:19:00,76.2,70.4,29.85,North,-999,-999.0,-999.0,82,0.00,,,0.00,WSDL version 420,2013-04-12 08:19:00,
2013-04-12 04:24:00,76.1,70.3,29.85,North,-999,-999.0,-999.0,82,0.00,,,0.00,WSDL version 420,2013-04-12 08:24:00,
2013-04-12 04:29:00,76.1,70.2,29.85,North,-999,-999.0,-999.0,82,0.00,,,0.00,WSDL version 420,2013-04-12 08:29:00,
2013-04-12 04:34:00,75.9,70.1,29.85,North,-999,-999.0,-999.0,82,0.00,,,0.00,WSDL version 420,2013-04-12 08:34:00,
2013-04-12 04:39:00,75.8,70.0,29.85,North,-999,-999.0,-999.0,82,0.00,,,0.00,WSDL version 420,2013-04-12 08:39:00,
2013-04-12 04:44:00,75.7,69.9,29.85,North,-999,-999.0,-999.0,82,0.00,,,0.00,WSDL version 420,2013-04-12 08:44:00,
2013-04-12 04:49:00,75.7,69.9,29.85,North,-999,-999.0,-999.0,82,0.00,,,0.00,WSDL version 420,2013-04-12 08:49:00,
2013-04-12 04:54:00,75.6,69.8,29.88,North,-999,-999.0,-999.0,82,0.00,,,0.00,WSDL version 420,2013-04-12 08:54:00,
2013-04-12 04:59:00,75.6,70.1,29.88,North,-999,-999.0,-999.0,83,0.00,,,0.00,WSDL version 420,2013-04-12 08:59:00,
2013-04-12 05:04:00,75.6,70.2,29.88,North,-999,-999.0,-999.0,83,0.00,,,0.00,WSDL version 420,2013-04-12 09:04:00,
2013-04-12 05:09:00,75.6,70.2,29.88,North,-999,-999.0,-999.0,83,0.00,,,0.00,WSDL version 420,2013-04-12 09:09:00,
2013-04-12 05:14:00,75.6,70.2,29.88,North,-999,-999.0,-999.0,83,0.00,,,0.00,WSDL version 420,2013-04-12 09:14:00,
2013-04-12 05:19:00,75.6,70.2,29.88,North,-999,-999.0,-999.0,83,0.00,,,0.00,WSDL version 420,2013-04-12 09:19:00,
2013-04-12 05:24:00,75.6,70.2,29.88,North,-999,-999.0,-999.0,83,0.00,,,0.00,WSDL version 420,2013-04-12 09:24:00,
2013-04-12 05:29:00,75.6,70.6,29.88,North,-999,-999.0,-999.0,84,0.00,,,0.00,WSDL version 420,2013-04-12 09:29:00,
2013-04-12 05:34:00,75.7,70.7,29.88,North,-999,-999.0,-999.0,84,0.00,,,0.00,WSDL version 420,2013-04-12 09:34:00,
2013-04-12 05:39:00,75.7,70.7,29.88,North,-999,-999.0,-999.0,84,0.00,,,0.00,WSDL version 420,2013-04-12 09:39:00,
2013-04-12 05:44:00,75.7,70.4,29.88,North,-999,-999.0,-999.0,83,0.00,,,0.00,WSDL version 420,2013-04-12 09:44:00,
2013-04-12 05:49:00,75.8,70.4,29.88,North,-999,-999.0,-999.0,83,0.00,,,0.00,WSDL version 420,2013-04-12 09:49:00,
2013-04-12 05:54:00,75.9,70.5,29.88,North,-999,-999.0,-999.0,83,0.00,,,0.00,WSDL version 420,2013-04-12 09:54:00,
2013-04-12 05:59:00,75.9,70.5,29.88,North,-999,-999.0,-999.0,83,0.00,,,0.00,WSDL version 420,2013-04-12 09:59:00,
2013-04-12 06:04:00,75.9,70.5,29.88,North,-999,-999.0,-999.0,83,0.00,,,0.00,WSDL version 420,2013-04-12 10:04:00,
2013-04-12 06:09:00,75.9,70.5,29.88,North,-999,-999.0,-999.0,83,0.00,,,0.00,WSDL version 420,2013-04-12 10:09:00,
2013-04-12 06:14:00,75.9,70.5,29.88,North,-999,-999.0,-999.0,83,0.00,,,0.00,WSDL version 420,2013-04-12 10:14:00,
2013-04-12 06:19:00,75.9,70.5,29.88,North,-999,-999.0,-999.0,83,0.00,,,0.00,WSDL version 420,2013-04-12 10:19:00,
2013-04-12 06:24:00,75.9,70.5,29.88,North,-999,-999.0,-999.0,83,0.00,,,0.00,WSDL version 420,2013-04-12 10:24:00,
2013-04-12 06:29:00,75.9,70.5,29.88,North,-999,-999.0,-999.0,83,0.00,,,0.00,WSDL version 420,2013-04-12 10:29:00,
2013-04-12 06:34:00,75.9,70.2,29.88,North,-999,-999.0,-999.0,82,0.00,,,0.00,WSDL version 420,2013-04-12 10:34:00,
2013-04-12 06:39:00,75.8,70.0,29.88,North,-999,-999.0,-999.0,82,0.00,,,0.00,WSDL version 420,2013-04-12 10:39:00,
2013-04-12 06:49:00,75.7,70.1,29.88,North,-999,-999.0,-999.0,83,0.00,,,0.00,WSDL version 420,2013-04-12 10:49:00,
2013-04-12 06:54:00,75.7,70.2,29.88,North,-999,-999.0,-999.0,83,0.00,,,0.00,WSDL version 420,2013-04-12 10:54:00,
2013-04-12 06:59:00,75.6,70.2,29.88,North,-999,-999.0,-999.0,83,0.00,,,0.00,WSDL version 420,2013-04-12 10:59:00,
2013-04-12 07:04:00,75.6,70.2,29.88,North,-999,-999.0,-999.0,83,0.00,,,0.00,WSDL version 420,2013-04-12 11:04:00,
2013-04-12 07:09:00,75.6,70.2,29.88,North,-999,-999.0,-999.0,83,0.00,,,0.00,WSDL version 420,2013-04-12 11:09:00,
2013-04-12 07:14:00,75.6,70.2,29.88,North,-999,-999.0,-999.0,83,0.00,,,0.00,WSDL version 420,2013-04-12 11:14:00,
2013-04-12 07:19:00,75.7,70.6,29.88,North,-999,-999.0,-999.0,84,0.00,,,0.00,WSDL version 420,2013-04-12 11:19:00,
2013-04-12 07:24:00,75.7,70.7,29.88,North,-999,-999.0,-999.0,84,0.00,,,0.00,WSDL version 420,2013-04-12 11:24:00,
2013-04-12 07:29:00,75.9,70.8,29.88,North,-999,-999.0,-999.0,84,0.00,,,0.00,WSDL version 420,2013-04-12 11:29:00,
2013-04-12 07:34:00,76.1,71.1,29.88,North,-999,-999.0,-999.0,84,0.00,,,0.00,WSDL version 420,2013-04-12 11:34:00,
2013-04-12 07:39:00,76.3,71.3,29.88,North,-999,-999.0,-999.0,84,0.00,,,0.00,WSDL version 420,2013-04-12 11:39:00,
2013-04-12 07:44:00,76.5,71.5,29.88,North,-999,-999.0,-999.0,84,0.00,,,0.00,WSDL version 420,2013-04-12 11:44:00,
2013-04-12 07:49:00,76.8,71.7,29.88,North,-999,-999.0,-999.0,83,0.00,,,0.00,WSDL version 420,2013-04-12 11:49:00,
2013-04-12 07:54:00,77.1,71.6,29.88,North,-999,-999.0,-999.0,83,0.00,,,0.00,WSDL version 420,2013-04-12 11:54:00,
2013-04-12 07:59:00,77.4,71.9,29.88,North,-999,-999.0,-999.0,83,0.00,,,0.00,WSDL version 420,2013-04-12 11:59:00,
2013-04-12 08:04:00,78.0,72.5,29.88,North,-999,-999.0,-999.0,83,0.00,,,0.00,WSDL version 420,2013-04-12 12:04:00,
2013-04-12 08:09:00,78.4,72.6,29.88,North,-999,-999.0,-999.0,82,0.00,,,0.00,WSDL version 420,2013-04-12 12:09:00,
2013-04-12 08:14:00,78.7,72.6,29.88,North,-999,-999.0,-999.0,81,0.00,,,0.00,WSDL version 420,2013-04-12 12:14:00,
2013-04-12 08:19:00,79.1,72.4,29.88,North,-999,-999.0,-999.0,80,0.00,,,0.00,WSDL version 420,2013-04-12 12:19:00,
2013-04-12 08:24:00,79.6,72.5,29.85,North,-999,-999.0,-999.0,79,0.00,,,0.00,WSDL version 420,2013-04-12 12:24:00,
2013-04-12 08:29:00,80.0,72.7,29.85,North,-999,-999.0,-999.0,78,0.00,,,0.00,WSDL version 420,2013-04-12 12:29:00,
2013-04-12 08:34:00,80.5,73.0,29.85,North,-999,-999.0,-999.0,78,0.00,,,0.00,WSDL version 420,2013-04-12 12:34:00,
2013-04-12 08:39:00,80.4,72.7,29.85,North,-999,-999.0,-999.0,77,0.00,,,0.00,WSDL version 420,2013-04-12 12:39:00,
2013-04-12 08:44:00,80.2,72.3,29.85,North,-999,-999.0,-999.0,77,0.00,,,0.00,WSDL version 420,2013-04-12 12:44:00,
2013-04-12 08:49:00,80.2,72.1,29.85,North,-999,-999.0,-999.0,76,0.00,,,0.00,WSDL version 420,2013-04-12 12:49:00,
2013-04-12 08:54:00,80.4,72.1,29.85,North,-999,-999.0,-999.0,76,0.00,,,0.00,WSDL version 420,2013-04-12 12:54:00,
2013-04-12 09:04:00,81.2,72.2,29.85,North,-999,-999.0,-999.0,74,0.00,,,0.00,WSDL version 420,2013-04-12 13:04:00,
2013-04-12 09:09:00,81.4,72.0,29.88,North,-999,-999.0,-999.0,73,0.00,,,0.00,WSDL version 420,2013-04-12 13:09:00,
2013-04-12 09:14:00,81.5,72.1,29.88,North,-999,-999.0,-999.0,73,0.00,,,0.00,WSDL version 420,2013-04-12 13:14:00,
2013-04-12 09:19:00,81.9,71.8,29.88,North,-999,-999.0,-999.0,71,0.00,,,0.00,WSDL version 420,2013-04-12 13:19:00,
2013-04-12 09:24:00,82.5,71.8,29.85,North,-999,-999.0,-999.0,70,0.00,,,0.00,WSDL version 420,2013-04-12 13:24:00,
2013-04-12 09:29:00,83.6,72.0,29.85,North,-999,-999.0,-999.0,68,0.00,,,0.00,WSDL version 420,2013-04-12 13:29:00,
2013-04-12 09:34:00,84.9,72.5,29.85,North,-999,-999.0,-999.0,66,0.00,,,0.00,WSDL version 420,2013-04-12 13:34:00,
2013-04-12 09:39:00,85.6,72.5,29.88,North,-999,-999.0,-999.0,65,0.00,,,0.00,WSDL version 420,2013-04-12 13:39:00,
2013-04-12 09:44:00,86.5,73.0,29.88,North,-999,-999.0,-999.0,64,0.00,,,0.00,WSDL version 420,2013-04-12 13:44:00,
2013-04-12 09:49:00,86.5,72.2,29.88,North,-999,-999.0,-999.0,62,0.00,,,0.00,WSDL version 420,2013-04-12 13:49:00,
2013-04-12 09:54:00,87.8,72.9,29.85,North,-999,-999.0,-999.0,60,0.00,,,0.00,WSDL version 420,2013-04-12 13:54:00,
2013-04-12 09:59:00,88.2,71.9,29.85,North,-999,-999.0,-999.0,58,0.00,,,0.00,WSDL version 420,2013-04-12 13:59:00,
2013-04-12 10:04:00,87.9,71.3,29.85,North,-999,-999.0,-999.0,58,0.00,,,0.00,WSDL version 420,2013-04-12 14:04:00,
2013-04-12 10:09:00,87.8,71.0,29.91,North,-999,-999.0,-999.0,58,0.00,,,0.00,WSDL version 420,2013-04-12 14:09:00,
2013-04-12 10:14:00,88.4,71.7,29.91,North,-999,-999.0,-999.0,56,0.00,,,0.00,WSDL version 420,2013-04-12 14:14:00,
2013-04-12 10:19:00,87.7,70.3,29.91,North,-999,-999.0,-999.0,57,0.00,,,0.00,WSDL version 420,2013-04-12 14:19:00,
2013-04-12 10:24:00,87.0,70.0,29.88,North,-999,-999.0,-999.0,57,0.00,,,0.00,WSDL version 420,2013-04-12 14:24:00,
2013-04-12 10:29:00,87.2,70.0,29.88,North,-999,-999.0,-999.0,57,0.00,,,0.00,WSDL version 420,2013-04-12 14:29:00,
2013-04-12 10:34:00,87.1,69.7,29.88,North,-999,-999.0,-999.0,56,0.00,,,0.00,WSDL version 420,2013-04-12 14:34:00,
2013-04-12 10:39:00,87.2,70.1,29.88,North,-999,-999.0,-999.0,57,0.00,,,0.00,WSDL version 420,2013-04-12 14:39:00,
2013-04-12 10:44:00,87.6,70.9,29.88,North,-999,-999.0,-999.0,57,0.00,,,0.00,WSDL version 420,2013-04-12 14:44:00,
2013-04-12 10:49:00,87.3,70.1,29.88,North,-999,-999.0,-999.0,57,0.00,,,0.00,WSDL version 420,2013-04-12 14:49:00,
2013-04-12 10:54:00,86.7,69.6,29.88,North,-999,-999.0,-999.0,57,0.00,,,0.00,WSDL version 420,2013-04-12 14:54:00,
2013-04-12 10:59:00,86.9,70.3,29.88,North,-999,-999.0,-999.0,58,0.00,,,0.00,WSDL version 420,2013-04-12 14:59:00,
2013-04-12 11:04:00,87.0,70.2,29.88,North,-999,-999.0,-999.0,57,0.00,,,0.00,WSDL version 420,2013-04-12 15:04:00,
2013-04-12 11:09:00,87.2,70.6,29.88,North,-999,-999.0,-999.0,58,0.00,,,0.00,WSDL version 420,2013-04-12 15:09:00,
2013-04-12 11:14:00,87.5,70.4,29.88,North,-999,-999.0,-999.0,57,0.00,,,0.00,WSDL version 420,2013-04-12 15:14:00,
2013-04-12 11:19:00,88.2,71.1,29.88,North,-999,-999.0,-999.0,56,0.00,,,0.00,WSDL version 420,2013-04-12 15:19:00,
2013-04-12 11:24:00,87.6,69.5,29.85,North,-999,-999.0,-999.0,55,0.00,,,0.00,WSDL version 420,2013-04-12 15:24:00,
2013-04-12 11:29:00,87.1,69.0,29.85,North,-999,-999.0,-999.0,55,0.00,,,0.00,WSDL version 420,2013-04-12 15:29:00,
2013-04-12 11:34:00,87.9,70.3,29.85,North,-999,-999.0,-999.0,56,0.00,,,0.00,WSDL version 420,2013-04-12 15:34:00,
2013-04-12 11:39:00,89.4,71.8,29.85,North,-999,-999.0,-999.0,56,0.00,,,0.00,WSDL version 420,2013-04-12 15:39:00,
2013-04-12 11:44:00,89.7,70.8,29.85,North,-999,-999.0,-999.0,53,0.00,,,0.00,WSDL version 420,2013-04-12 15:44:00,
2013-04-12 11:49:00,89.1,70.3,29.85,North,-999,-999.0,-999.0,54,0.00,,,0.00,WSDL version 420,2013-04-12 15:49:00,
2013-04-12 11:54:00,88.9,70.1,29.88,North,-999,-999.0,-999.0,54,0.00,,,0.00,WSDL version 420,2013-04-12 15:54:00,
2013-04-12 11:59:00,89.6,71.3,29.88,North,-999,-999.0,-999.0,55,0.00,,,0.00,WSDL version 420,2013-04-12 15:59:00,
2013-04-12 12:04:00,89.4,69.8,29.88,North,-999,-999.0,-999.0,52,0.00,,,0.00,WSDL version 420,2013-04-12 16:04:00,
2013-04-12 12:09:00,89.8,70.4,29.88,North,-999,-999.0,-999.0,53,0.00,,,0.00,WSDL version 420,2013-04-12 16:09:00,
2013-04-12 12:14:00,90.1,70.1,29.88,North,-999,-999.0,-999.0,52,0.00,,,0.00,WSDL version 420,2013-04-12 16:14:00,
2013-04-12 12:19:00,90.8,70.6,29.88,North,-999,-999.0,-999.0,52,0.00,,,0.00,WSDL version 420,2013-04-12 16:19:00,
2013-04-12 12:24:00,91.2,70.8,29.88,North,-999,-999.0,-999.0,51,0.00,,,0.00,WSDL version 420,2013-04-12 16:24:00,
2013-04-12 12:29:00,91.7,70.1,29.88,North,-999,-999.0,-999.0,49,0.00,,,0.00,WSDL version 420,2013-04-12 16:29:00,
2013-04-12 12:34:00,91.5,69.4,29.88,North,-999,-999.0,-999.0,48,0.00,,,0.00,WSDL version 420,2013-04-12 16:34:00,
2013-04-12 12:39:00,91.7,68.9,29.88,North,-999,-999.0,-999.0,47,0.00,,,0.00,WSDL version 420,2013-04-12 16:39:00,
2013-04-12 12:44:00,91.9,69.0,29.88,North,-999,-999.0,-999.0,47,0.00,,,0.00,WSDL version 420,2013-04-12 16:44:00,
2013-04-12 12:49:00,91.9,68.7,29.88,North,-999,-999.0,-999.0,45,0.00,,,0.00,WSDL version 420,2013-04-12 16:49:00,
2013-04-12 12:54:00,91.5,67.7,29.88,North,-999,-999.0,-999.0,46,0.00,,,0.00,WSDL version 420,2013-04-12 16:54:00,
2013-04-12 12:59:00,91.1,67.6,29.88,North,-999,-999.0,-999.0,47,0.00,,,0.00,WSDL version 420,2013-04-12 16:59:00,
2013-04-12 13:04:00,91.5,68.2,29.88,North,-999,-999.0,-999.0,46,0.00,,,0.00,WSDL version 420,2013-04-12 17:04:00,
2013-04-12 13:09:00,91.1,68.2,29.88,North,-999,-999.0,-999.0,48,0.00,,,0.00,WSDL version 420,2013-04-12 17:09:00,
2013-04-12 13:14:00,90.2,67.3,29.88,North,-999,-999.0,-999.0,47,0.00,,,0.00,WSDL version 420,2013-04-12 17:14:00,
2013-04-12 13:19:00,89.5,67.0,29.88,North,-999,-999.0,-999.0,48,0.00,,,0.00,WSDL version 420,2013-04-12 17:19:00,
2013-04-12 13:24:00,89.8,67.8,29.85,North,-999,-999.0,-999.0,49,0.00,,,0.00,WSDL version 420,2013-04-12 17:24:00,
2013-04-12 13:29:00,91.0,69.6,29.85,North,-999,-999.0,-999.0,49,0.00,,,0.00,WSDL version 420,2013-04-12 17:29:00,
2013-04-12 13:34:00,91.3,69.5,29.85,North,-999,-999.0,-999.0,49,0.00,,,0.00,WSDL version 420,2013-04-12 17:34:00,
2013-04-12 13:43:00,91.2,69.4,29.85,SSW,203,3.8,5.6,50,0.00,,,0.00,WSDL version 420,2013-04-12 17:43:00,
2013-04-12 13:53:00,90.8,70.0,29.85,South,180,2.2,5.6,51,0.00,,,0.00,WSDL version 420,2013-04-12 17:53:00,
2013-04-12 14:03:00,92.8,71.4,29.85,South,180,4.7,4.9,50,0.00,,,0.00,WSDL version 420,2013-04-12 18:03:00,
2013-04-12 14:08:00,93.1,70.8,29.85,South,180,4.7,4.7,47,0.00,,,0.00,WSDL version 420,2013-04-12 18:08:00,
2013-04-12 14:24:00,89.6,68.1,29.85,North,-999,-999.0,-999.0,50,0.00,,,0.00,WSDL version 420,2013-04-12 18:24:00,
2013-04-12 15:26:00,90.0,69.9,29.83,North,-999,-999.0,-999.0,51,0.00,,,0.00,WSDL version 420,2013-04-12 19:26:00,
2013-04-12 15:31:00,90.0,70.1,29.83,North,-999,-999.0,-999.0,53,0.00,,,0.00,WSDL version 420,2013-04-12 19:31:00,
2013-04-12 15:36:00,90.2,71.3,29.83,North,-999,-999.0,-999.0,54,0.00,,,0.00,WSDL version 420,2013-04-12 19:36:00,
2013-04-12 15:46:00,88.8,70.2,29.83,North,-999,-999.0,-999.0,55,0.00,,,0.00,WSDL version 420,2013-04-12 19:46:00,
2013-04-12 15:53:00,89.9,71.6,29.83,North,-999,-999.0,-999.0,54,0.00,,,0.00,WSDL version 420,2013-04-12 19:53:00,
2013-04-12 15:58:00,89.3,70.8,29.83,North,-999,-999.0,-999.0,55,0.00,,,0.00,WSDL version 420,2013-04-12 19:58:00,
2013-04-12 16:03:00,88.4,70.8,29.83,North,-999,-999.0,-999.0,57,0.00,,,0.00,WSDL version 420,2013-04-12 20:03:00,
2013-04-12 16:08:00,87.7,70.8,29.80,North,-999,-999.0,-999.0,57,0.00,,,0.00,WSDL version 420,2013-04-12 20:08:00,
2013-04-12 16:13:00,87.8,70.2,29.80,North,-999,-999.0,-999.0,56,0.00,,,0.00,WSDL version 420,2013-04-12 20:13:00,
2013-04-12 16:18:00,87.8,70.2,29.80,North,-999,-999.0,-999.0,57,0.00,,,0.00,WSDL version 420,2013-04-12 20:18:00,
2013-04-12 16:23:00,87.5,70.1,29.83,North,-999,-999.0,-999.0,56,0.00,,,0.00,WSDL version 420,2013-04-12 20:23:00,
2013-04-12 16:28:00,87.1,69.7,29.83,North,-999,-999.0,-999.0,56,0.00,,,0.00,WSDL version 420,2013-04-12 20:28:00,
2013-04-12 16:33:00,86.8,68.5,29.83,North,-999,-999.0,-999.0,51,0.00,,,0.00,WSDL version 420,2013-04-12 20:33:00,
2013-04-12 16:38:00,86.5,66.1,29.83,North,-999,-999.0,-999.0,50,0.00,,,0.00,WSDL version 420,2013-04-12 20:38:00,
2013-04-12 16:43:00,86.5,66.2,29.83,North,-999,-999.0,-999.0,52,0.00,,,0.00,WSDL version 420,2013-04-12 20:43:00,
2013-04-12 16:48:00,86.5,67.3,29.83,North,-999,-999.0,-999.0,54,0.00,,,0.00,WSDL version 420,2013-04-12 20:48:00,
2013-04-12 16:53:00,86.3,68.4,29.83,North,-999,-999.0,-999.0,56,0.00,,,0.00,WSDL version 420,2013-04-12 20:53:00,
2013-04-12 16:58:00,85.9,69.2,29.83,North,-999,-999.0,-999.0,58,0.00,,,0.00,WSDL version 420,2013-04-12 20:58:00,
2013-04-12 17:03:00,85.8,69.7,29.83,North,-999,-999.0,-999.0,59,0.00,,,0.00,WSDL version 420,2013-04-12 21:03:00,
2013-04-12 17:08:00,85.8,69.7,29.83,North,-999,-999.0,-999.0,58,0.00,,,0.00,WSDL version 420,2013-04-12 21:08:00,
2013-04-12 17:13:00,85.4,67.8,29.83,North,-999,-999.0,-999.0,56,0.00,,,0.00,WSDL version 420,2013-04-12 21:13:00,
2013-04-12 17:18:00,85.3,67.9,29.83,North,-999,-999.0,-999.0,57,0.00,,,0.00,WSDL version 420,2013-04-12 21:18:00,
2013-04-12 17:23:00,85.5,69.0,29.83,North,-999,-999.0,-999.0,59,0.00,,,0.00,WSDL version 420,2013-04-12 21:23:00,
2013-04-12 17:28:00,85.7,69.5,29.83,North,-999,-999.0,-999.0,59,0.00,,,0.00,WSDL version 420,2013-04-12 21:28:00,
2013-04-12 17:33:00,85.7,69.8,29.83,North,-999,-999.0,-999.0,59,0.00,,,0.00,WSDL version 420,2013-04-12 21:33:00,
2013-04-12 17:38:00,85.6,69.7,29.83,North,-999,-999.0,-999.0,59,0.00,,,0.00,WSDL version 420,2013-04-12 21:38:00,
2013-04-12 17:43:00,85.5,69.4,29.83,North,-999,-999.0,-999.0,58,0.00,,,0.00,WSDL version 420,2013-04-12 21:43:00,
2013-04-12 17:48:00,85.1,68.4,29.83,North,-999,-999.0,-999.0,56,0.00,,,0.00,WSDL version 420,2013-04-12 21:48:00,
2013-04-12 17:53:00,84.7,67.3,29.83,North,-999,-999.0,-999.0,56,0.00,,,0.00,WSDL version 420,2013-04-12 21:53:00,
2013-04-12 17:58:00,84.6,67.2,29.83,North,-999,-999.0,-999.0,56,0.00,,,0.00,WSDL version 420,2013-04-12 21:58:00,
2013-04-12 18:03:00,84.2,67.0,29.83,North,-999,-999.0,-999.0,57,0.00,,,0.00,WSDL version 420,2013-04-12 22:03:00,
2013-04-12 18:08:00,83.8,67.1,29.83,North,-999,-999.0,-999.0,58,0.00,,,0.00,WSDL version 420,2013-04-12 22:08:00,
2013-04-12 18:13:00,83.5,67.2,29.83,North,-999,-999.0,-999.0,58,0.00,,,0.00,WSDL version 420,2013-04-12 22:13:00,
2013-04-12 18:18:00,83.3,67.5,29.83,North,-999,-999.0,-999.0,59,0.00,,,0.00,WSDL version 420,2013-04-12 22:18:00,
2013-04-12 18:23:00,83.1,67.9,29.83,North,-999,-999.0,-999.0,61,0.00,,,0.00,WSDL version 420,2013-04-12 22:23:00,
2013-04-12 18:28:00,82.8,68.3,29.83,North,-999,-999.0,-999.0,62,0.00,,,0.00,WSDL version 420,2013-04-12 22:28:00,
2013-04-12 18:33:00,82.2,68.5,29.83,North,-999,-999.0,-999.0,64,0.00,,,0.00,WSDL version 420,2013-04-12 22:33:00,
2013-04-12 18:38:00,81.5,68.4,29.83,North,-999,-999.0,-999.0,65,0.00,,,0.00,WSDL version 420,2013-04-12 22:38:00,
2013-04-12 18:43:00,80.4,68.2,29.83,North,-999,-999.0,-999.0,67,0.00,,,0.00,WSDL version 420,2013-04-12 22:43:00,
2013-04-12 18:48:00,79.7,68.1,29.83,North,-999,-999.0,-999.0,69,0.00,,,0.00,WSDL version 420,2013-04-12 22:48:00,
2013-04-12 18:53:00,79.3,68.3,29.83,North,-999,-999.0,-999.0,70,0.04,,,0.04,WSDL version 420,2013-04-12 22:53:00,
2013-04-12 18:58:00,78.9,68.9,29.83,North,-999,-999.0,-999.0,72,0.04,,,0.04,WSDL version 420,2013-04-12 22:58:00,
2013-04-12 19:03:00,78.7,69.6,29.83,North,-999,-999.0,-999.0,74,0.04,,,0.04,WSDL version 420,2013-04-12 23:03:00,
2013-04-12 19:08:00,78.4,69.6,29.85,North,-999,-999.0,-999.0,75,0.04,,,0.04,WSDL version 420,2013-04-12 23:08:00,
2013-04-12 19:13:00,78.2,69.7,29.85,North,-999,-999.0,-999.0,75,0.04,,,0.04,WSDL version 420,2013-04-12 23:13:00,
2013-04-12 19:18:00,78.0,70.0,29.85,North,-999,-999.0,-999.0,77,0.04,,,0.04,WSDL version 420,2013-04-12 23:18:00,
2013-04-12 19:23:00,77.7,69.9,29.83,North,-999,-999.0,-999.0,77,0.04,,,0.04,WSDL version 420,2013-04-12 23:23:00,
2013-04-12 19:28:00,77.6,70.0,29.83,North,-999,-999.0,-999.0,77,0.04,,,0.04,WSDL version 420,2013-04-12 23:28:00,
2013-04-12 19:33:00,77.5,70.1,29.83,North,-999,-999.0,-999.0,78,0.04,,,0.04,WSDL version 420,2013-04-12 23:33:00,
2013-04-12 19:38:00,77.5,70.4,29.83,North,-999,-999.0,-999.0,79,0.04,,,0.04,WSDL version 420,2013-04-12 23:38:00,
2013-04-12 19:43:00,77.3,70.3,29.83,North,-999,-999.0,-999.0,79,0.04,,,0.04,WSDL version 420,2013-04-12 23:43:00,
2013-04-12 19:48:00,76.8,69.8,29.83,North,-999,-999.0,-999.0,79,0.04,,,0.04,WSDL version 420,2013-04-12 23:48:00,
2013-04-12 19:53:00,76.1,68.6,29.85,North,-999,-999.0,-999.0,77,0.00,,,0.04,WSDL version 420,2013-04-12 23:53:00,
2013-04-12 19:58:00,75.6,68.1,29.85,North,-999,-999.0,-999.0,78,0.00,,,0.04,WSDL version 420,2013-04-12 23:58:00,
2013-04-12 20:03:00,75.4,68.2,29.85,North,-999,-999.0,-999.0,78,0.00,,,0.04,WSDL version 420,2013-04-13 00:03:00,
2013-04-12 20:08:00,75.4,68.4,29.85,North,-999,-999.0,-999.0,79,0.00,,,0.04,WSDL version 420,2013-04-13 00:08:00,
2013-04-12 20:13:00,75.2,68.3,29.85,North,-999,-999.0,-999.0,80,0.00,,,0.04,WSDL version 420,2013-04-13 00:13:00,
2013-04-12 20:18:00,75.0,68.4,29.85,North,-999,-999.0,-999.0,80,0.00,,,0.04,WSDL version 420,2013-04-13 00:18:00,
2013-04-12 20:23:00,74.9,68.3,29.85,North,-999,-999.0,-999.0,80,0.00,,,0.04,WSDL version 420,2013-04-13 00:23:00,
2013-04-12 20:28:00,74.9,68.4,29.85,North,-999,-999.0,-999.0,81,0.00,,,0.04,WSDL version 420,2013-04-13 00:28:00,
2013-04-12 20:33:00,75.0,68.8,29.85,North,-999,-999.0,-999.0,81,0.00,,,0.04,WSDL version 420,2013-04-13 00:33:00,
2013-04-12 20:38:00,75.1,68.9,29.85,North,-999,-999.0,-999.0,81,0.00,,,0.04,WSDL version 420,2013-04-13 00:38:00,
2013-04-12 20:43:00,75.2,69.0,29.85,North,-999,-999.0,-999.0,81,0.00,,,0.04,WSDL version 420,2013-04-13 00:43:00,
2013-04-12 20:48:00,75.1,69.0,29.85,North,-999,-999.0,-999.0,81,0.00,,,0.04,WSDL version 420,2013-04-13 00:48:00,
2013-04-12 20:53:00,75.2,69.3,29.85,North,-999,-999.0,-999.0,82,0.00,,,0.04,WSDL version 420,2013-04-13 00:53:00,
2013-04-12 20:58:00,75.2,69.4,29.85,North,-999,-999.0,-999.0,82,0.00,,,0.04,WSDL version 420,2013-04-13 00:58:00,
2013-04-12 21:03:00,75.2,69.4,29.85,North,-999,-999.0,-999.0,82,0.00,,,0.04,WSDL version 420,2013-04-13 01:03:00,
2013-04-12 21:08:00,75.2,69.4,29.85,North,-999,-999.0,-999.0,82,0.00,,,0.04,WSDL version 420,2013-04-13 01:08:00,
2013-04-12 21:13:00,75.2,69.4,29.85,North,-999,-999.0,-999.0,82,0.00,,,0.04,WSDL version 420,2013-04-13 01:13:00,
2013-04-12 21:18:00,75.2,69.2,29.85,North,-999,-999.0,-999.0,81,0.00,,,0.04,WSDL version 420,2013-04-13 01:18:00,
2013-04-12 21:23:00,75.3,69.5,29.85,North,-999,-999.0,-999.0,82,0.00,,,0.04,WSDL version 420,2013-04-13 01:23:00,
2013-04-12 21:28:00,75.4,69.5,29.85,North,-999,-999.0,-999.0,82,0.00,,,0.04,WSDL version 420,2013-04-13 01:28:00,
2013-04-12 21:33:00,75.4,69.6,29.85,North,-999,-999.0,-999.0,82,0.00,,,0.04,WSDL version 420,2013-04-13 01:33:00,
2013-04-12 21:38:00,75.4,69.6,29.85,North,-999,-999.0,-999.0,82,0.00,,,0.04,WSDL version 420,2013-04-13 01:38:00,
2013-04-12 21:43:00,75.4,69.6,29.85,North,-999,-999.0,-999.0,82,0.00,,,0.04,WSDL version 420,2013-04-13 01:43:00,
2013-04-12 21:48:00,75.5,69.8,29.85,North,-999,-999.0,-999.0,83,0.00,,,0.04,WSDL version 420,2013-04-13 01:48:00,
2013-04-12 21:53:00,75.6,70.2,29.88,North,-999,-999.0,-999.0,83,0.00,,,0.04,WSDL version 420,2013-04-13 01:53:00,
2013-04-12 21:58:00,75.6,70.2,29.88,North,-999,-999.0,-999.0,83,0.00,,,0.04,WSDL version 420,2013-04-13 01:58:00,
2013-04-12 22:03:00,75.6,70.2,29.88,North,-999,-999.0,-999.0,83,0.00,,,0.04,WSDL version 420,2013-04-13 02:03:00,
2013-04-12 22:08:00,75.6,70.2,29.91,North,-999,-999.0,-999.0,83,0.00,,,0.04,WSDL version 420,2013-04-13 02:08:00,
2013-04-12 22:13:00,75.6,70.2,29.91,North,-999,-999.0,-999.0,83,0.00,,,0.04,WSDL version 420,2013-04-13 02:13:00,
2013-04-12 22:18:00,75.6,70.4,29.91,North,-999,-999.0,-999.0,84,0.00,,,0.04,WSDL version 420,2013-04-13 02:18:00,
2013-04-12 22:23:00,75.6,70.5,29.91,North,-999,-999.0,-999.0,84,0.00,,,0.04,WSDL version 420,2013-04-13 02:23:00,
2013-04-12 22:28:00,75.6,70.5,29.91,North,-999,-999.0,-999.0,84,0.00,,,0.04,WSDL version 420,2013-04-13 02:28:00,
2013-04-12 22:33:00,75.6,70.5,29.91,North,-999,-999.0,-999.0,84,0.00,,,0.04,WSDL version 420,2013-04-13 02:33:00,
2013-04-12 22:38:00,75.6,70.5,29.88,North,-999,-999.0,-999.0,84,0.00,,,0.04,WSDL version 420,2013-04-13 02:38:00,
2013-04-12 22:43:00,75.5,70.5,29.88,North,-999,-999.0,-999.0,84,0.00,,,0.04,WSDL version 420,2013-04-13 02:43:00,
2013-04-12 22:48:00,75.5,70.6,29.88,North,-999,-999.0,-999.0,86,0.00,,,0.04,WSDL version 420,2013-04-13 02:48:00,
2013-04-12 22:53:00,75.4,70.7,29.88,North,-999,-999.0,-999.0,86,0.00,,,0.04,WSDL version 420,2013-04-13 02:53:00,
2013-04-12 22:58:00,75.4,70.7,29.88,North,-999,-999.0,-999.0,86,0.00,,,0.04,WSDL version 420,2013-04-13 02:58:00,
2013-04-12 23:03:00,75.4,70.7,29.88,North,-999,-999.0,-999.0,86,0.00,,,0.04,WSDL version 420,2013-04-13 03:03:00,
2013-04-12 23:08:00,75.4,70.7,29.88,North,-999,-999.0,-999.0,86,0.00,,,0.04,WSDL version 420,2013-04-13 03:08:00,
2013-04-12 23:13:00,75.4,70.7,29.88,North,-999,-999.0,-999.0,86,0.00,,,0.04,WSDL version 420,2013-04-13 03:13:00,
2013-04-12 23:18:00,75.4,70.7,29.88,North,-999,-999.0,-999.0,86,0.00,,,0.04,WSDL version 420,2013-04-13 03:18:00,
2013-04-12 23:23:00,75.2,70.8,29.85,North,-999,-999.0,-999.0,87,0.00,,,0.04,WSDL version 420,2013-04-13 03:23:00,
2013-04-12 23:33:00,75.2,71.0,29.85,North,-999,-999.0,-999.0,87,0.00,,,0.04,WSDL version 420,2013-04-13 03:33:00,
2013-04-12 23:38:00,75.2,71.0,29.85,North,-999,-999.0,-999.0,87,0.00,,,0.04,WSDL version 420,2013-04-13 03:38:00,
2013-04-12 23:43:00,75.2,71.0,29.85,North,-999,-999.0,-999.0,87,0.00,,,0.04,WSDL version 420,2013-04-13 03:43:00,
2013-04-12 23:48:00,75.0,70.9,29.85,North,-999,-999.0,-999.0,87,0.00,,,0.04,WSDL version 420,2013-04-13 03:48:00,
2013-04-12 23:53:00,75.0,71.2,29.88,North,-999,-999.0,-999.0,88,0.00,,,0.04,WSDL version 420,2013-04-13 03:53:00,